RH
22 22 22 22 22 22 22 22 22 23 23 24 26 27 29 31 33 34 34 33 31 28 23 18 14 11 10 11 12 16 21 26 27 26 26 24 18 16 15 13 13 13 14 16 16 15 13 12 10 9 8 7 7 7 8 9 11 13 13 10 7 8 9 10 12 14 18 23 26 30 32 30 32 38 40 41 41 39 36 31 29 29 30 31 32 34 37 40
22 22 22 22 22 22 22 21 21 21 21 21 22 23 24 26 28 30 32 34 35 34 32 28 23 18 13 10 10 11 13 18 23 26 28 26 22 22 20 17 15 14 13 15 17 16 15 14 13 11 10 8 8 7 8 7 7 7 7 5 4 4 5 6 8 11 14 18 21 26 30 29 29 33 37 40 41 41 40 37 34 33 32 32 32 33 35 36
21 21 21 21 21 21 21 21 21 20 20 20 20 20 20 21 22 24 27 30 32 33 34 33 31 28 22 17 12 10 10 11 14 19 24 26 25 25 24 22 20 17 15 15 16 15 14 14 14 14 12 10 9 8 8 7 7 6 6 4 3 3 4 4 5 7 9 13 16 18 25 28 29 31 32 35 39 40 41 40 39 38 36 36 35 34 35 36
20 20 20 20 20 20 19 19 19 19 19 18 18 18 18 18 18 19 21 23 26 29 30 32 32 31 30 27 22 16 11 10 11 13 16 20 24 26 27 26 25 22 20 18 15 14 14 13 14 14 14 13 12 10 9 7 7 6 5 4 3 4 4 4 4 5 6 9 10 12 16 21 26 30 28 29 33 37 39 40 41 40 39 38 37 37 37 38
18 18 17 17 17 16 16 16 16 16 16 15 15 15 15 15 15 15 15 17 19 21 25 27 28 29 30 31 30 26 21 15 11 11 12 13 16 20 25 28 27 25 23 21 18 16 15 14 14 13 13 13 13 12 10 9 8 7 5 5 4 5 5 5 5 6 6 7 7 8 9 12 18 23 23 24 26 30 35 38 40 41 41 40 39 39 39 40
16 15 14 14 13 13 12 12 11 11 11 11 11 11 11 11 12 12 11 12 13 14 17 20 23 25 27 29 30 30 30 26 19 15 13 11 12 14 17 22 26 27 25 23 22 20 18 15 14 13 12 12 13 12 12 12 11 9 7 6 6 5 5 5 6 6 6 7 6 7 7 8 10 13 17 20 20 24 29 33 37 38 40 41 41 41 40 41
14 12 11 11 10 9 9 8 8 8 7 7 7 7 8 8 8 8 8 9 9 9 10 13 16 19 22 25 27 27 29 31 30 26 19 12 10 11 12 14 18 23 25 25 25 23 21 19 16 14 13 12 12 12 13 15 13 10 9 8 8 7 6 6 6 6 6 7 7 7 7 7 7 7 10 13 15 18 22 27 31 33 36 38 40 41 41 41
12 10 10 9 8 8 8 8 7 7 7 7 7 7 7 7 7 6 6 6 6 7 7 8 9 12 15 19 23 24 26 34 36 32 28 20 13 11 11 11 12 14 19 23 26 25 22 21 20 18 16 14 13 13 14 14 13 10 9 10 9 8 8 7 7 7 7 7 7 7 6 6 6 6 7 7 10 13 16 20 24 27 30 33 35 37 38 39
10 9 8 8 8 8 8 9 9 9 9 9 9 9 9 8 8 7 7 7 6 6 5 6 6 7 9 11 16 19 24 35 35 30 31 29 23 17 12 11 11 11 12 16 21 24 24 23 23 23 20 19 16 15 14 13 11 9 10 11 11 10 10 10 9 9 8 8 7 7 6 7 7 6 5 5 7 9 11 14 17 20 23 26 29 30 32 33
9 8 8 9 9 9 10 10 10 10 10 11 11 11 11 11 10 10 9 9 8 8 7 6 5 6 6 7 9 12 21 33 30 26 29 30 30 26 18 12 9 10 10 11 14 18 22 24 27 25 22 21 18 16 14 12 10 10 10 10 11 11 11 11 11 11 10 9 8 7 7 7 8 6 4 5 6 7 8 10 12 14 17 19 22 23 24 25
8 9 9 9 9 10 10 10 10 11 12 13 13 13 13 13 12 11 10 10 10 9 9 8 7 6 5 6 6 6 14 22 22 24 25 26 30 29 27 20 12 10 9 9 10 11 15 20 25 25 21 19 19 18 17 14 11 11 11 10 10 10 10 11 11 12 13 11 11 9 7 7 7 5 4 5 6 6 6 8 9 11 12 14 15 17 17 18
9 10 10 10 10 10 10 11 12 13 13 13 13 13 13 12 12 12 11 11 11 10 10 10 9 8 6 5 5 6 9 12 14 20 22 24 28 28 29 29 23 17 12 10 10 11 11 12 19 24 22 20 19 20 19 16 13 12 11 10 10 10 10 10 11 13 14 13 14 13 10 7 6 5 5 6 6 6 5 5 7 9 10 11 12 12 12 13
11 10 10 11 12 13 13 14 14 14 14 13 12 11 11 12 12 11 10 11 11 11 11 10 9 9 8 6 8 9 7 7 10 14 17 21 25 26 27 30 31 27 20 15 12 11 12 10 12 18 23 22 20 19 17 16 15 14 13 11 10 10 9 10 11 13 14 14 15 16 11 7 7 5 6 8 6 6 5 4 5 6 8 9 10 11 11 11
11 11 13 15 16 16 16 15 15 15 13 12 12 12 13 13 12 10 8 8 8 9 10 10 10 9 8 7 10 13 9 7 9 10 12 15 20 25 27 28 32 33 29 22 16 13 12 10 9 12 19 22 22 20 17 17 17 16 15 12 11 10 9 10 12 12 13 14 18 18 11 8 10 7 7 9 7 6 5 4 4 4 5 6 8 9 10 10
12 14 18 20 20 18 17 17 16 15 13 13 14 15 16 16 14 12 8 6 5 6 8 8 9 9 8 8 10 13 11 9 9 10 9 9 15 22 26 28 30 34 34 29 22 16 12 10 8 8 13 19 23 22 17 16 16 17 16 12 11 10 10 10 12 13 13 15 19 18 10 8 11 10 8 8 8 7 6 5 4 4 4 4 5 6 8 9
15 19 24 24 21 19 19 18 16 15 14 16 19 20 20 19 19 16 10 6 5 5 6 7 8 8 8 8 11 12 11 12 13 12 9 7 11 16 22 26 29 32 36 34 28 22 16 10 8 8 8 13 20 22 19 16 15 15 15 13 12 12 11 12 13 14 14 15 17 16 10 7 12 14 11 8 8 8 7 6 5 5 4 4 5 5 6 7
19 25 28 26 22 20 20 18 16 15 18 22 23 24 27 26 26 22 13 6 6 7 7 6 6 7 8 8 10 12 10 12 15 14 10 8 9 13 16 20 27 33 37 38 32 26 20 13 9 9 8 8 15 22 21 15 12 13 13 13 13 13 12 13 14 15 16 16 16 15 10 7 12 16 15 10 8 7 7 7 5 5 5 5 5 5 6 7
24 31 32 26 22 23 22 19 16 20 27 30 31 37 39 33 30 25 16 13 12 14 13 9 7 5 6 9 9 12 11 10 14 17 14 9 9 12 12 15 25 32 37 39 35 29 25 18 12 10 9 7 10 18 20 15 12 12 12 13 13 14 14 14 15 16 17 17 16 15 10 8 11 15 16 14 9 7 7 7 7 6 6 6 6 7 7 8
30 36 34 25 24 25 23 19 21 31 39 42 49 56 47 36 38 30 18 22 25 25 24 17 14 9 6 12 14 12 12 10 12 17 16 11 10 12 12 13 21 31 36 37 35 32 27 22 16 10 6 6 6 12 18 18 16 15 14 15 17 17 18 17 16 17 18 17 17 15 11 9 11 13 16 17 14 9 7 7 7 6 6 7 8 9 9 9
36 39 33 25 27 28 25 23 29 43 52 58 66 63 45 38 54 51 28 27 33 32 34 30 22 16 16 26 30 20 11 11 12 16 18 14 11 12 13 14 17 28 34 34 35 34 30 25 20 12 6 6 5 8 17 22 21 19 16 16 19 20 20 20 18 17 18 18 17 15 13 11 11 14 17 19 18 13 9 7 7 7 7 8 9 10 9 10
40 41 32 25 30 32 30 30 39 54 63 73 73 60 46 42 64 69 36 28 43 38 37 46 35 22 34 53 56 38 16 11 13 15 18 16 13 13 16 17 16 21 29 35 38 38 33 26 22 17 10 8 7 7 15 23 24 23 18 16 18 20 21 21 20 18 18 17 17 16 14 12 12 14 19 21 19 17 14 9 6 7 7 8 9 10 11 11
44 42 30 28 35 37 36 37 49 60 68 79 73 57 50 46 64 78 44 26 51 54 43 53 50 43 63 85 86 58 21 15 21 19 19 19 17 16 18 22 19 20 31 39 40 36 30 25 23 20 14 11 8 6 13 22 26 25 21 17 17 19 21 22 21 19 18 17 17 16 14 12 12 14 20 22 20 19 17 13 9 7 7 9 9 11 13 11
48 43 32 30 38 43 40 42 56 65 71 77 69 57 53 48 65 86 61 29 42 54 40 45 66 80 91 95 96 73 33 27 37 28 20 20 21 20 21 24 23 25 34 37 35 30 25 23 25 22 16 12 9 6 11 21 26 26 23 19 17 19 22 23 22 20 19 18 17 16 15 13 12 14 17 19 18 18 17 16 13 8 7 8 10 14 15 11
53 44 34 32 41 48 45 48 62 68 72 73 66 61 52 50 72 88 75 54 49 48 33 33 59 89 104 97 90 78 54 48 50 36 22 21 24 23 22 25 27 29 30 31 33 30 26 27 28 24 16 13 10 7 9 17 24 25 24 21 18 20 23 24 23 21 20 18 17 17 15 14 12 13 15 16 16 16 16 16 15 11 8 8 12 15 14 12
58 45 36 36 44 51 49 57 69 71 73 71 68 68 57 60 80 83 77 75 70 61 47 38 42 60 85 92 82 71 60 57 55 42 24 22 27 24 24 28 28 29 30 33 35 31 28 30 32 27 18 14 11 8 8 14 23 26 24 22 20 22 25 25 23 21 20 18 17 17 14 12 12 12 14 16 16 16 16 16 15 14 10 9 14 17 16 15
60 45 37 42 47 50 55 66 74 74 76 73 69 71 68 73 81 77 79 82 77 74 67 63 65 62 62 66 65 59 54 55 59 48 27 22 28 25 25 28 27 29 35 39 38 31 28 31 33 30 21 15 12 9 9 13 22 26 24 24 23 24 26 25 22 21 20 19 17 16 14 12 12 13 14 15 16 17 17 17 16 15 12 12 17 19 17 14
57 42 42 51 49 46 56 70 76 76 77 75 73 75 78 85 84 74 76 80 80 82 75 76 87 79 66 62 56 48 45 50 57 49 30 23 27 27 26 27 29 32 38 43 37 28 28 30 33 35 24 17 14 10 9 13 20 24 25 26 26 27 27 25 22 21 20 19 18 16 14 13 13 13 14 15 17 18 19 18 17 15 13 15 18 17 14 13
51 41 49 58 51 44 55 68 75 79 79 78 80 85 90 97 92 78 77 78 81 86 81 84 88 78 77 76 60 49 43 41 48 45 33 26 25 27 28 27 31 35 41 41 27 21 30 32 34 38 30 20 16 12 11 14 19 23 26 29 30 30 28 24 22 21 20 19 18 16 15 13 12 13 14 15 17 19 19 19 18 15 14 15 16 15 14 14
45 41 53 60 53 44 52 66 75 81 86 88 90 92 96 102 95 84 87 85 83 90 90 94 98 89 87 78 61 58 49 33 35 39 33 27 25 26 28 29 33 39 44 41 30 30 38 38 39 42 35 24 18 15 15 18 22 25 30 33 33 31 27 24 22 21 20 18 16 16 16 14 12 13 15 15 17 18 20 20 19 17 15 16 16 16 17 17
44 41 51 58 53 45 49 65 77 87 95 98 99 96 95 102 98 87 93 94 89 93 96 98 101 95 93 84 68 64 56 37 28 32 31 26 24 25 27 30 34 40 47 45 40 41 44 45 46 46 40 31 24 22 22 24 28 33 36 37 35 31 27 24 22 21 20 16 15 16 16 15 13 12 14 16 16 18 20 21 20 19 18 17 18 18 18 18
47 40 48 56 51 43 47 61 77 93 101 100 101 100 96 99 99 91 93 97 90 86 92 101 102 96 96 93 79 69 62 44 25 24 28 26 25 25 25 30 33 39 47 45 41 43 48 51 49 47 45 39 32 32 32 31 34 38 40 39 34 30 27 24 22 21 18 15 15 17 16 15 13 11 14 16 16 18 20 20 21 20 19 20 20 19 18 18
53 40 48 56 49 41 42 52 73 93 100 100 100 100 99 100 102 98 91 85 84 85 92 101 101 97 96 95 91 83 67 43 23 21 25 24 24 24 24 27 31 38 42 39 38 43 50 54 52 51 52 46 39 39 39 37 37 40 41 39 33 30 27 24 21 19 16 15 16 16 16 15 11 10 13 15 16 18 20 21 22 21 21 22 22 21 19 18
58 41 49 59 50 41 39 47 70 90 97 99 100 99 100 98 95 94 84 74 85 97 99 102 100 97 99 100 103 97 75 46 23 18 23 24 22 22 24 28 32 39 40 38 42 48 54 60 59 56 53 49 44 41 37 33 33 38 40 37 32 29 26 23 20 18 16 16 16 16 16 14 11 10 12 15 16 17 20 21 21 21 21 23 25 25 22 19
60 43 50 59 53 44 40 48 70 90 98 99 101 100 97 87 75 74 72 72 91 104 100 99 97 94 98 101 103 100 87 61 30 17 21 21 21 22 23 28 34 40 45 48 52 55 58 60 55 52 51 49 46 42 39 37 36 39 40 37 32 29 25 22 20 19 17 17 17 17 16 14 12 11 12 15 16 17 19 20 20 21 23 26 26 24 21 19
60 45 48 56 54 46 43 53 70 88 97 99 101 100 95 84 71 70 76 82 97 104 99 98 95 95 100 100 101 99 91 68 31 15 20 18 18 23 22 26 34 41 47 53 59 63 64 61 53 52 54 53 49 45 45 48 47 45 42 37 32 29 26 24 21 19 18 18 17 16 15 14 13 12 12 15 16 16 18 20 21 22 24 26 25 23 20 19
64 45 47 53 54 52 52 60 72 84 94 99 102 99 93 86 78 79 88 96 102 102 101 102 98 98 100 99 101 99 94 78 38 13 18 19 17 22 22 27 35 42 49 57 64 69 70 68 64 60 60 58 54 50 48 48 48 45 40 35 31 29 27 24 22 20 19 18 17 16 15 15 14 13 13 14 16 18 20 21 21 23 25 24 23 22 20 18
73 50 46 51 53 56 61 66 72 81 92 98 102 101 91 84 83 90 99 102 102 101 100 102 99 100 101 100 105 97 81 68 40 16 16 18 18 21 23 29 36 43 53 63 71 75 74 73 69 64 63 62 59 57 55 52 48 42 37 34 31 29 27 24 22 21 19 18 17 16 16 16 15 13 13 15 17 18 21 23 23 24 24 23 22 21 20 20
77 59 48 47 50 56 61 67 71 78 87 92 99 103 97 91 91 97 102 101 100 101 101 97 92 96 98 96 102 99 74 47 27 19 19 17 18 21 23 30 38 46 57 68 78 82 83 82 75 70 69 66 64 62 59 54 48 41 36 35 32 28 25 24 22 20 20 19 17 17 17 16 16 14 13 16 19 20 22 23 24 25 23 23 22 21 21 20
71 68 60 48 47 55 61 67 72 78 85 88 95 101 100 99 101 99 101 102 95 90 91 86 80 86 92 89 92 95 80 52 29 21 21 19 19 22 25 32 43 52 60 72 83 87 89 88 81 76 74 71 67 60 52 48 46 41 37 34 32 28 25 23 22 21 20 19 17 17 18 18 17 15 14 18 22 22 23 22 23 24 24 24 24 24 26 24
66 76 79 59 47 55 63 66 71 79 85 86 92 101 100 99 101 100 99 97 83 74 79 80 83 95 98 95 95 86 69 53 36 24 21 23 24 24 27 38 50 60 68 80 89 90 92 92 87 81 78 71 61 51 47 46 43 39 35 32 30 28 25 23 22 22 21 20 19 19 20 20 20 17 15 20 25 25 26 25 24 24 25 27 28 29 32 32
66 73 83 70 50 52 62 66 67 75 85 86 88 96 100 98 101 102 92 78 70 76 87 83 84 97 98 98 103 94 80 64 42 30 27 24 26 27 31 45 60 69 78 86 90 91 94 94 88 82 73 60 52 52 56 54 46 39 35 31 30 28 25 24 23 21 22 22 20 18 22 23 22 19 17 21 25 28 30 30 27 25 27 29 28 31 39 41
63 64 73 70 54 48 58 66 66 68 78 85 85 88 95 99 101 96 77 60 61 77 93 94 93 97 99 100 96 93 97 80 44 31 32 27 29 34 39 55 70 79 86 90 94 98 96 91 85 77 66 60 61 66 66 58 48 42 37 32 29 27 25 24 22 22 27 30 26 21 24 28 27 23 20 22 28 33 34 35 32 28 28 29 31 39 47 48
55 56 64 66 56 46 56 72 73 69 70 78 84 87 95 102 98 83 63 54 62 74 87 100 102 98 100 103 90 79 82 68 38 29 32 31 34 38 49 68 80 88 95 96 99 100 93 87 82 76 73 75 76 73 67 57 47 42 37 32 28 26 24 23 24 28 34 39 38 31 32 37 36 33 28 24 31 38 36 37 36 31 28 31 38 47 49 47
52 51 57 65 58 43 52 74 79 75 71 73 83 89 95 97 88 75 64 61 72 83 90 99 101 98 99 99 91 76 62 54 51 45 37 37 38 39 54 75 83 88 96 97 97 96 91 87 85 82 83 86 83 74 64 54 45 40 35 30 27 25 24 24 24 29 38 45 47 42 43 43 43 48 45 32 30 36 36 37 38 32 30 32 39 45 44 43
56 53 54 66 63 44 45 63 69 72 73 70 76 83 88 87 80 77 74 68 77 91 97 99 99 98 97 96 98 83 56 54 71 67 49 46 47 50 62 76 85 93 98 99 100 100 97 96 95 91 85 80 73 62 53 45 40 37 33 29 27 24 24 24 23 27 39 53 56 49 47 47 48 61 65 50 39 37 35 37 39 35 33 34 39 42 41 41
51 53 57 70 71 49 40 50 57 65 71 70 73 78 78 77 75 76 74 67 74 91 96 93 93 96 92 91 100 86 53 52 71 71 64 61 57 61 73 83 94 102 101 100 101 101 101 100 99 94 82 71 62 53 47 44 39 36 31 27 26 25 24 24 24 27 38 58 66 58 52 50 52 66 75 67 57 49 42 41 40 36 34 34 36 41 44 44
38 42 52 69 74 53 39 46 53 60 67 69 73 77 76 72 70 70 67 62 70 82 83 78 79 84 84 85 93 81 54 54 65 62 67 75 68 69 83 95 100 100 99 101 100 100 100 95 89 84 76 70 65 58 52 46 38 34 29 26 26 26 24 24 25 28 35 52 67 66 59 52 53 64 74 71 65 58 52 48 44 41 39 37 35 36 41 45
41 40 46 62 72 60 44 45 53 62 68 69 70 74 75 72 70 70 62 57 66 74 73 73 68 67 79 92 95 77 54 55 61 53 57 75 80 81 94 102 99 94 95 100 100 100 97 89 84 79 71 67 64 58 52 45 38 33 29 26 26 27 27 25 26 33 41 51 63 66 60 56 56 61 68 69 65 61 57 53 51 52 51 47 41 36 38 43
56 54 51 58 70 68 53 43 50 62 70 74 75 75 78 75 74 76 66 57 68 79 83 89 79 65 74 87 89 82 71 73 82 70 60 73 86 91 100 101 98 99 97 96 99 99 93 86 83 78 68 64 62 57 51 45 38 33 29 27 26 27 29 28 30 44 57 62 67 67 59 56 58 59 62 66 64 62 61 57 54 56 56 53 49 43 42 44
61 61 54 57 69 77 64 46 48 60 69 78 80 77 81 80 76 85 85 72 72 80 85 91 86 75 75 74 78 91 94 95 98 77 58 72 88 95 98 94 95 104 100 92 95 97 91 87 82 75 68 63 61 57 51 45 39 33 29 28 28 29 30 29 31 48 67 72 72 72 65 57 56 57 58 62 63 62 62 59 57 56 54 53 51 48 48 49
50 53 49 52 64 79 74 51 44 57 70 79 80 77 83 86 82 89 99 94 88 90 93 89 79 79 80 70 75 95 99 100 100 74 56 74 89 90 91 88 92 102 98 90 93 93 90 87 79 71 68 66 63 57 50 46 41 35 30 27 28 29 31 32 34 45 65 75 75 76 73 65 59 54 51 53 57 60 60 59 58 55 53 53 52 50 52 53
49 57 55 51 55 71 80 62 44 50 65 75 76 77 82 89 91 93 98 101 98 99 103 88 68 73 76 63 72 96 100 100 100 77 61 75 86 86 87 85 89 99 97 90 90 91 92 88 77 71 70 67 64 59 53 49 43 38 33 28 27 29 31 35 38 45 61 74 77 77 76 72 65 56 47 43 44 49 56 59 57 55 54 52 50 52 54 54
Wind_Speed
33 34 36 37 38 39 41 42 43 44 45 47 48 49 50 52 53 54 55 56 57 57 58 59 60 61 62 62 61 60 59 59 59 59 58 59 59 59 59 59 58 59 59 58 58 58 58 57 57 56 55 54 54 54 54 55 55 56 57 58 58 58 56 53 51 49 48 43 38 38 39 43 44 41 40 39 39 38 38 40 39 39 40 38 36 34 34 35
34 36 37 38 40 41 42 43 45 46 47 48 49 50 51 52 53 54 55 56 57 58 58 59 59 60 62 63 64 63 62 60 60 59 59 60 60 60 59 58 59 60 60 59 59 59 59 58 58 58 57 57 56 55 55 55 55 55 55 56 56 53 52 49 48 47 47 45 41 39 41 44 45 44 44 44 43 41 40 40 39 38 38 37 37 35 33 33
35 37 38 40 41 43 44 45 47 48 49 50 51 52 52 53 54 55 56 57 58 59 60 60 60 60 61 62 63 65 65 64 62 60 60 61 61 61 60 59 59 60 60 59 60 61 60 59 59 59 59 59 58 57 56 56 56 56 56 56 53 50 49 46 45 46 46 45 41 40 42 45 45 45 47 47 46 45 43 41 40 39 38 38 37 36 35 33
37 38 40 41 42 44 45 47 48 49 51 52 53 54 55 56 56 57 57 58 59 60 60 61 61 61 61 61 62 63 64 65 64 63 62 62 62 62 61 59 60 61 61 60 61 61 61 61 60 59 59 59 59 58 58 58 57 57 57 55 52 49 49 47 46 45 44 42 40 39 42 45 45 45 47 48 49 48 45 42 41 42 40 40 39 37 36 34
38 40 41 42 44 45 46 47 49 50 52 53 54 56 57 58 59 59 60 60 60 61 61 62 62 63 62 62 63 62 62 64 64 64 65 65 64 63 62 60 60 61 62 61 61 61 61 61 61 60 60 60 59 59 59 58 58 58 57 54 52 52 52 49 46 45 42 41 39 38 40 42 43 45 47 48 49 49 46 44 45 45 42 41 41 39 38 36
40 41 43 44 45 46 46 48 49 50 51 53 55 56 58 59 60 61 61 62 63 63 63 63 63 63 63 64 64 63 63 63 63 64 65 67 67 65 63 61 60 62 62 61 60 61 61 61 61 61 61 60 59 59 58 57 58 58 56 55 55 55 54 50 47 45 42 41 39 38 38 39 40 43 46 48 48 48 47 47 48 47 45 43 43 41 40 38
43 43 44 44 45 45 46 46 47 49 50 52 53 55 57 58 60 61 62 63 64 65 65 65 65 65 65 64 64 65 63 63 64 64 64 66 68 67 66 64 62 62 62 62 60 60 60 60 61 61 61 61 60 59 58 57 58 58 56 56 56 56 55 51 48 46 43 42 40 38 38 37 39 41 43 45 46 47 47 48 50 49 47 46 45 43 41 40
46 46 46 46 45 45 45 44 45 46 47 48 50 52 54 56 58 60 61 63 64 65 66 67 67 67 67 65 66 65 63 64 67 66 64 64 66 67 68 66 65 63 63 62 61 59 59 60 60 60 61 60 59 59 57 57 58 58 57 56 57 57 55 52 50 48 45 43 40 39 39 38 38 40 40 40 43 46 46 48 50 50 50 49 46 45 43 41
48 47 47 46 45 44 44 43 43 44 44 45 47 48 50 52 55 57 59 61 63 65 66 67 67 68 68 67 68 66 63 65 67 67 66 64 64 66 67 67 67 66 65 63 61 60 59 59 58 58 59 59 59 58 58 58 59 59 57 56 57 56 54 52 51 49 47 45 43 42 41 38 37 39 38 37 39 43 45 47 49 49 50 50 48 46 44 42
48 47 46 45 44 43 42 42 42 42 43 44 45 46 48 50 53 55 57 58 61 62 65 66 67 69 68 68 68 66 63 64 66 68 68 66 66 66 66 67 67 67 67 65 62 60 59 58 57 57 58 58 58 59 58 59 59 59 59 57 56 56 54 53 51 49 47 46 46 46 44 40 38 40 38 35 38 40 42 46 47 48 49 49 48 47 44 42
47 46 44 43 42 42 42 42 42 42 43 43 44 46 48 51 53 55 56 58 59 61 63 64 66 68 69 69 67 66 64 64 67 70 69 68 67 66 65 65 65 66 66 66 64 62 59 57 56 57 58 57 57 57 57 57 58 59 59 58 57 56 55 53 51 48 48 47 46 47 47 43 42 42 37 34 37 38 39 43 45 47 48 48 47 45 43 41
45 44 42 42 41 41 42 42 42 43 43 45 46 48 50 52 55 57 58 59 60 61 62 63 65 66 68 69 65 65 66 66 69 70 69 68 66 66 65 64 64 64 64 65 65 64 61 59 57 57 57 56 55 55 56 57 58 58 59 59 57 56 56 54 51 48 47 47 45 47 48 47 46 43 36 34 37 37 38 40 41 44 45 46 44 41 39 38
43 42 41 41 41 42 43 43 44 45 46 48 50 52 54 57 60 62 63 63 62 63 63 64 65 65 68 67 61 63 67 66 68 69 69 68 65 64 65 64 64 63 62 63 63 64 63 61 59 57 57 56 54 54 55 56 57 57 57 57 57 57 57 54 51 48 48 47 44 47 50 48 46 43 38 36 37 37 38 39 39 40 42 42 41 38 37 35
42 41 41 41 43 44 44 44 45 47 49 52 54 56 58 61 64 66 67 67 66 66 66 66 65 66 68 64 57 61 67 66 67 67 68 69 65 63 64 64 64 63 62 61 62 63 63 62 61 58 57 57 54 53 54 54 55 55 56 57 56 57 56 53 52 50 49 46 44 47 50 46 43 43 40 38 37 38 40 39 38 37 36 35 35 35 35 35
41 41 41 43 45 45 45 46 48 50 52 54 56 59 61 62 63 63 63 64 65 66 68 68 66 67 68 63 56 59 65 65 64 65 66 69 67 64 63 63 63 63 62 62 61 61 62 63 62 60 58 56 54 53 54 54 54 54 56 56 55 55 54 51 52 51 49 46 44 48 50 45 40 41 41 41 40 39 40 39 37 35 31 28 28 29 31 32
40 41 43 45 45 45 46 47 49 51 53 56 58 60 61 62 64 63 58 55 56 59 63 66 67 67 66 63 59 58 62 64 62 63 65 67 68 65 64 63 61 61 62 62 61 61 61 61 62 61 59 57 55 54 54 54 54 55 56 55 54 54 53 51 51 50 48 46 46 48 48 43 37 38 41 42 42 41 40 39 36 33 28 25 24 25 26 28
39 41 44 45 45 45 46 48 49 52 54 56 57 59 61 63 66 64 54 46 45 47 53 59 64 67 65 63 61 58 60 63 61 60 62 65 67 66 65 64 61 60 61 62 62 61 60 60 61 62 61 59 56 55 56 56 56 56 56 55 55 53 52 51 49 48 47 46 45 46 46 41 35 36 41 43 43 42 40 38 36 32 29 26 25 24 25 26
40 42 44 45 45 45 46 47 49 52 54 55 56 57 59 61 64 61 47 38 36 36 41 47 55 62 62 60 61 59 59 61 60 59 60 63 65 65 65 65 63 60 60 62 62 61 61 60 60 61 61 60 57 56 57 57 55 54 55 54 53 51 51 49 46 45 45 44 44 44 44 40 34 35 40 43 43 43 42 39 36 33 31 29 27 25 26 26
40 42 43 44 43 44 45 46 49 52 52 53 55 54 55 57 59 54 40 32 30 31 33 38 45 53 55 56 59 59 60 60 58 58 59 61 64 64 64 65 64 61 60 61 61 61 61 61 61 60 60 60 58 56 56 56 54 52 51 51 50 48 47 45 42 42 43 43 44 43 43 40 35 35 39 42 43 44 43 40 38 36 34 32 28 27 27 26
40 41 42 41 42 42 44 46 49 50 50 51 52 49 49 50 51 49 38 29 28 28 30 33 37 44 49 51 54 57 60 59 57 56 58 60 62 63 63 64 64 63 61 60 60 61 61 62 61 58 57 58 58 56 54 54 53 50 49 50 49 47 46 43 41 41 42 43 44 42 42 41 36 34 37 41 43 43 43 42 40 38 36 33 29 28 27 27
40 41 40 39 40 41 43 45 48 48 48 48 48 45 46 45 46 47 36 24 25 26 27 31 33 37 43 45 47 54 58 57 54 54 57 59 60 62 62 62 63 63 61 60 60 61 61 60 58 56 56 56 57 56 53 53 52 49 49 49 48 47 46 43 40 40 42 43 43 42 43 42 37 34 36 40 42 42 42 41 40 38 36 33 30 29 28 30
40 39 38 37 38 40 42 44 46 46 44 44 43 41 41 41 42 46 38 19 20 25 24 28 30 30 35 39 42 49 55 53 50 51 55 57 58 60 60 61 62 61 61 61 61 61 61 59 56 56 56 56 56 56 53 52 51 50 50 49 47 47 46 43 39 38 41 43 43 43 43 42 38 34 35 39 41 41 40 39 39 39 36 33 31 29 29 32
39 38 37 36 37 40 41 44 44 43 41 41 39 37 36 37 38 40 38 25 13 24 25 22 25 26 30 35 38 44 49 48 44 46 53 55 55 58 59 60 60 60 61 61 60 60 59 58 57 56 56 56 56 56 54 52 51 50 51 50 48 46 45 42 38 37 40 43 43 42 42 41 39 36 36 39 40 40 39 38 39 39 38 34 31 31 32 34
38 37 36 36 37 38 40 43 42 40 39 38 36 33 32 33 35 33 32 30 20 19 24 20 21 24 27 31 33 38 42 43 41 44 50 52 53 56 57 59 60 60 60 60 60 59 59 58 57 56 55 55 55 55 54 52 50 50 51 51 48 46 43 39 35 36 40 42 42 42 42 42 41 38 36 37 38 38 37 37 38 39 38 35 33 34 36 35
37 36 36 36 36 36 39 41 40 38 38 37 34 31 29 30 33 33 28 27 26 20 17 16 15 18 24 29 31 34 39 41 39 42 49 51 52 54 55 58 60 59 58 59 60 60 59 59 56 54 53 53 54 54 53 51 49 49 50 49 47 45 41 37 35 36 39 42 42 41 43 43 41 38 35 34 36 36 36 37 37 38 37 35 34 35 36 33
36 34 35 35 35 34 37 40 38 37 37 36 33 29 29 29 30 32 28 24 24 20 17 17 15 11 16 24 30 33 37 40 39 42 49 51 50 53 55 57 58 57 57 58 59 60 60 59 57 54 53 52 53 53 52 50 48 47 48 47 45 44 41 37 36 37 40 42 41 42 43 42 39 37 34 33 35 36 36 36 36 36 36 33 33 35 35 33
35 33 34 35 34 33 35 38 36 36 35 34 33 28 28 30 29 30 28 23 23 18 16 19 17 12 11 14 24 31 37 39 39 42 48 49 49 52 54 56 57 58 58 58 60 60 59 59 58 55 53 53 52 52 51 49 48 47 46 45 44 42 40 37 36 38 40 41 42 43 43 42 40 38 35 35 35 36 37 36 36 36 35 34 35 37 36 33
34 32 33 35 34 32 34 37 35 34 34 33 32 29 28 30 29 29 27 25 24 18 16 19 17 13 12 10 13 24 33 38 39 42 48 48 47 50 52 55 57 57 57 59 59 59 59 60 58 55 54 53 51 50 49 49 47 46 45 44 42 39 38 36 36 38 39 41 43 43 43 44 42 38 37 37 36 37 38 37 36 35 35 36 37 37 34 31
33 32 32 34 33 32 33 36 35 34 33 32 31 29 29 29 28 27 27 26 23 19 18 20 17 13 14 15 13 15 25 36 40 44 48 47 46 48 51 53 55 55 56 57 58 59 59 59 56 54 53 51 50 49 49 48 46 45 43 41 39 37 37 36 37 38 39 43 45 43 43 45 42 38 38 38 38 38 37 35 34 33 34 36 36 35 31 28
33 32 32 33 33 32 33 35 36 34 34 32 29 29 29 28 27 25 25 27 23 19 21 21 17 15 18 19 16 14 18 31 41 45 47 45 45 47 50 53 54 55 56 57 59 59 57 56 55 53 52 51 50 49 48 46 45 44 41 39 38 37 37 38 38 39 41 45 45 42 44 45 43 40 39 39 38 36 35 34 33 33 33 34 34 33 28 25
32 32 32 33 33 32 32 34 35 34 34 33 31 31 29 28 28 24 24 28 24 19 21 21 18 18 20 18 16 15 16 26 38 44 46 44 45 48 50 54 55 55 56 58 60 59 56 56 55 53 53 52 50 48 47 45 45 43 39 38 38 38 39 39 39 41 44 47 44 42 44 46 45 41 39 39 38 34 34 33 32 31 31 31 32 30 26 24
32 32 32 32 32 32 31 33 33 32 32 33 31 30 28 28 29 26 24 27 25 20 20 20 19 19 19 18 16 15 16 23 34 41 43 42 44 46 49 51 53 54 56 58 58 57 56 55 54 53 54 53 51 49 48 47 46 44 41 41 41 41 41 42 42 44 47 47 44 42 44 47 46 40 38 39 36 32 31 31 31 31 30 31 30 27 24 23
32 32 32 32 32 32 32 32 31 30 30 31 30 28 28 29 31 28 25 25 25 22 19 20 20 19 19 18 14 14 15 21 31 38 40 40 42 45 48 50 52 53 55 57 57 57 56 55 54 54 54 53 52 50 50 49 48 46 44 44 45 46 46 46 45 46 47 47 43 41 44 47 45 39 37 36 33 31 30 30 31 31 30 30 29 28 25 23
32 31 31 32 32 32 31 31 30 28 28 29 29 29 30 31 30 28 25 25 26 22 19 21 20 17 18 14 7 10 13 20 30 36 38 40 42 45 49 51 51 52 54 56 57 56 55 55 55 54 53 53 52 50 48 46 46 45 44 46 47 47 46 45 45 45 47 46 42 41 45 48 45 38 33 32 32 30 29 30 31 31 32 32 31 30 26 24
33 31 31 31 32 32 32 31 30 27 26 27 29 30 31 32 31 29 27 27 26 22 18 19 18 16 15 10 6 5 10 18 28 35 37 39 41 44 48 49 50 51 53 56 55 53 52 52 52 51 51 51 51 50 48 45 44 43 44 46 47 45 44 42 42 43 45 44 41 41 45 47 44 37 32 32 31 30 30 31 31 32 33 33 31 29 26 24
34 32 31 31 32 32 33 32 30 27 25 25 28 30 31 32 31 31 30 28 26 22 17 16 15 13 12 9 6 2 9 16 26 34 36 38 40 43 47 49 50 51 53 54 53 51 50 48 49 49 48 49 49 49 48 48 46 45 46 48 46 44 42 41 40 41 43 42 39 40 44 45 42 37 33 32 31 30 31 31 32 32 33 32 30 27 26 26
32 31 30 30 31 32 33 33 31 29 27 25 28 29 31 32 29 30 32 29 26 22 18 16 13 10 10 8 4 3 9 17 26 32 35 37 40 43 47 49 50 51 51 51 50 48 47 46 47 46 45 47 48 47 47 47 46 46 48 48 45 44 43 41 41 42 43 41 38 39 42 43 42 38 33 31 32 31 31 31 31 32 32 30 28 26 25 26
31 30 29 29 30 31 33 33 31 30 29 28 28 28 30 31 29 29 31 29 25 22 19 17 12 8 8 8 8 7 5 14 25 30 34 37 39 42 46 48 49 50 50 49 47 46 45 43 44 45 43 44 45 46 48 48 46 45 45 44 44 44 44 44 44 44 44 41 38 39 41 42 42 38 32 30 31 30 30 30 30 30 30 28 26 24 23 23
32 31 30 29 29 30 32 32 30 30 31 31 30 28 29 29 27 28 29 27 24 20 15 13 13 14 15 15 13 8 1 9 20 28 33 36 39 41 45 47 48 48 48 46 44 44 43 42 42 43 42 43 45 47 49 49 48 47 46 44 43 43 43 43 43 43 43 41 38 38 41 42 41 36 30 29 30 30 30 29 27 27 28 27 24 21 20 19
32 32 30 29 27 28 30 30 30 30 31 31 30 29 29 28 26 27 26 23 21 17 15 17 20 20 19 18 16 11 5 2 14 24 30 34 37 40 44 46 46 46 45 44 42 42 42 40 40 41 42 44 46 48 48 48 49 49 49 48 47 44 43 42 42 42 41 39 38 38 39 40 38 33 28 28 30 30 28 26 23 24 26 26 23 20 19 18
32 31 30 29 26 25 28 29 29 29 30 30 29 29 30 27 25 26 25 20 17 18 19 19 21 22 20 17 15 14 12 6 7 18 25 31 35 38 42 44 45 44 42 41 41 40 40 39 39 40 42 45 45 45 45 44 45 46 46 47 47 45 44 43 42 42 40 38 36 36 38 37 34 30 26 27 29 29 27 24 22 23 24 24 21 21 21 21
32 31 31 30 26 24 26 28 29 29 29 31 31 30 29 25 24 25 22 17 16 18 19 20 21 22 20 14 12 11 10 5 5 16 24 29 33 36 39 41 42 41 39 39 38 37 38 37 37 39 41 42 42 42 41 41 43 43 42 42 43 43 43 42 41 41 40 36 34 35 36 33 30 28 26 27 29 29 27 25 23 23 22 20 20 22 24 24
32 31 31 31 27 24 24 26 28 28 29 30 31 30 27 24 24 23 19 16 16 16 17 17 18 19 18 12 10 9 6 4 6 15 23 27 31 35 37 39 40 39 38 37 35 35 35 35 35 38 40 39 38 39 39 39 42 43 41 40 41 41 41 41 40 39 37 33 31 33 32 28 25 24 25 27 29 30 29 26 24 24 22 20 21 24 26 24
31 31 31 31 28 23 22 23 25 27 28 29 30 30 27 24 24 21 16 15 16 16 15 15 14 15 14 10 10 10 8 9 11 14 19 23 28 33 36 38 39 38 37 35 34 32 32 33 34 37 40 38 37 39 41 43 43 43 41 40 40 40 40 41 40 38 36 32 30 31 29 26 22 21 21 24 28 30 29 27 25 24 22 21 22 24 25 24
29 30 31 31 29 25 21 21 24 26 27 27 28 28 26 25 24 20 15 13 14 16 16 15 13 11 9 8 10 12 11 13 14 14 15 18 24 30 34 37 38 37 36 34 35 33 31 33 33 34 37 40 41 44 45 45 44 43 42 41 40 41 42 41 40 39 36 32 29 30 29 26 23 21 20 21 24 26 27 26 25 23 22 21 21 22 22 22
28 29 29 29 28 26 22 21 23 25 26 25 26 26 25 24 23 20 15 10 12 15 14 12 10 9 8 8 7 9 10 12 14 16 17 17 22 29 34 36 37 38 36 35 36 33 30 33 33 32 34 35 36 41 42 42 43 43 43 42 40 41 41 41 41 41 39 33 29 29 29 27 25 24 23 23 22 22 23 23 23 22 22 21 21 21 20 20
28 28 28 28 27 25 22 20 22 25 25 24 23 24 24 22 21 20 15 9 10 13 13 11 9 8 8 10 8 7 9 11 11 15 19 19 22 29 33 35 38 38 37 36 35 31 29 33 34 32 34 33 32 35 38 39 40 41 41 41 40 40 40 41 40 40 39 36 31 29 29 28 27 27 26 25 24 23 23 22 22 22 21 21 20 20 20 20
28 29 28 27 26 23 21 19 20 23 25 24 23 22 21 20 20 19 14 8 8 10 11 13 14 11 10 11 9 8 11 13 11 12 17 19 24 30 33 36 38 38 37 37 34 30 29 33 33 32 34 35 33 33 35 37 38 38 38 38 39 40 40 41 40 37 37 36 33 31 31 29 28 30 30 28 26 25 24 23 23 23 22 21 20 20 19 20
26 28 28 27 26 24 21 18 19 22 23 23 22 21 20 17 17 18 14 8 7 9 9 11 13 12 10 8 8 11 14 15 12 10 14 19 25 30 35 38 39 37 37 37 33 30 30 33 33 33 34 34 34 34 35 37 37 37 37 37 38 39 40 41 40 37 34 33 31 31 33 32 31 31 32 30 29 27 26 25 25 25 23 22 21 20 20 20
24 26 27 26 25 25 22 18 18 20 22 22 21 20 19 16 16 16 14 9 7 8 9 8 9 10 7 6 8 11 14 13 11 10 14 20 26 31 36 39 39 37 37 37 33 30 31 32 32 34 35 34 33 33 34 35 35 35 36 37 38 39 40 40 40 39 35 32 29 28 29 32 33 33 32 32 30 29 27 26 26 25 24 23 22 21 21 22
24 25 27 26 25 24 22 18 16 17 19 20 19 19 18 17 16 16 15 11 7 9 12 8 6 8 6 6 9 12 13 13 11 12 17 23 27 32 37 39 38 36 36 36 33 31 32 32 33 34 34 34 33 33 33 33 33 33 35 36 37 38 39 39 40 40 37 32 28 26 25 26 28 30 31 32 31 30 29 27 26 26 25 24 23 22 22 24
24 26 27 27 25 23 21 19 16 15 17 17 16 17 17 16 17 15 15 14 10 12 13 6 4 5 4 10 14 13 11 11 11 13 20 25 27 32 37 37 37 36 35 34 32 32 32 32 33 34 34 34 33 32 31 32 32 34 34 35 35 37 38 38 39 41 39 33 28 26 24 23 24 25 25 27 29 31 31 30 28 27 27 26 26 25 26 28
Wind_Direction
279 278 277 276 275 274 272 271 270 268 267 265 263 262 260 259 257 255 254 252 251 250 249 248 248 247 246 246 245 243 242 241 240 239 239 239 238 238 238 237 237 237 237 237 237 237 236 236 236 236 236 235 235 235 236 236 236 237 237 239 240 240 241 242 242 243 244 243 235 229 227 229 228 230 236 237 239 239 236 237 237 237 241 244 246 246 247 248
284 282 281 279 278 276 275 274 272 271 269 267 265 263 262 260 258 257 255 254 253 251 250 248 248 247 246 246 245 244 243 242 240 240 241 239 238 238 238 237 237 237 237 236 236 236 236 235 235 235 235 236 235 235 235 237 237 237 238 240 241 242 243 244 244 245 244 242 236 230 228 230 229 230 233 235 238 240 238 239 239 239 241 244 246 246 246 246
287 285 284 282 280 279 277 275 274 272 271 269 267 266 264 262 259 258 256 254 253 252 251 250 248 247 246 246 245 245 244 243 242 241 241 239 238 238 238 237 237 237 237 236 235 236 236 235 234 234 235 235 235 235 235 236 237 238 239 241 242 243 245 245 244 244 244 243 239 233 230 230 229 229 231 233 236 240 241 240 241 242 241 242 244 244 245 244
289 287 285 282 280 279 277 276 274 273 271 270 268 267 265 263 261 259 257 255 254 252 251 250 249 248 247 246 245 244 244 243 242 241 241 241 240 239 238 238 237 237 237 236 235 235 235 235 234 234 234 234 235 235 235 236 237 238 239 241 243 244 245 244 243 244 244 244 241 236 233 231 230 230 230 232 233 236 241 243 243 243 241 242 243 243 244 245
292 290 288 285 283 280 278 276 274 273 271 270 268 267 265 264 262 260 259 256 255 253 252 250 249 248 247 246 245 244 243 243 241 241 241 241 241 240 238 237 237 238 237 236 235 235 235 235 235 234 234 234 234 234 234 235 237 238 239 242 243 244 244 243 243 245 245 245 242 238 235 234 233 231 230 231 231 232 237 242 244 244 243 243 244 243 244 246
297 294 292 290 287 285 282 280 277 275 272 270 269 267 266 264 263 261 260 258 256 254 252 251 250 248 247 246 245 244 243 243 242 240 239 240 240 240 239 238 237 238 237 236 235 235 235 235 235 235 235 234 234 234 234 235 237 239 239 241 242 243 243 243 244 244 243 243 242 240 238 237 235 232 231 231 231 231 234 239 243 244 244 243 244 245 245 248
302 300 298 296 293 290 287 284 281 278 275 272 270 268 266 264 263 261 260 258 257 255 253 251 250 249 247 246 245 244 243 243 243 241 238 238 239 239 239 238 238 238 238 237 236 236 236 236 235 235 235 235 234 234 234 235 237 238 238 239 241 242 243 242 242 242 242 242 242 241 239 237 235 234 233 231 231 232 232 235 240 243 244 245 245 246 247 249
308 306 304 301 298 295 291 288 285 282 279 277 274 271 269 266 264 262 260 258 257 255 254 252 250 249 247 246 245 244 243 242 242 241 238 237 237 238 238 238 238 237 238 237 237 236 236 236 236 236 236 236 235 235 235 235 236 237 237 237 239 241 241 241 242 241 241 241 241 241 239 236 236 236 234 231 231 232 231 233 238 241 243 245 246 248 248 249
312 309 307 304 301 299 297 294 291 289 285 282 280 277 274 270 267 265 262 260 257 255 254 252 251 249 247 246 245 243 242 241 241 240 239 236 236 236 236 236 236 237 237 237 237 236 235 236 237 237 236 236 236 235 234 234 234 236 237 237 238 240 241 240 241 240 240 240 239 239 238 236 236 237 234 231 232 233 231 232 236 239 242 244 246 248 249 250
313 311 308 306 304 302 300 297 295 292 289 287 284 281 278 275 271 268 264 262 259 257 254 252 251 249 247 245 244 243 241 241 240 239 238 236 235 234 234 235 235 235 236 236 236 236 235 236 237 237 236 235 235 234 234 233 233 235 236 236 237 239 240 239 239 239 238 237 237 237 237 235 235 235 231 230 234 233 232 232 233 237 240 242 244 247 249 250
314 311 310 308 306 304 302 299 297 295 292 290 288 286 284 281 277 273 269 264 261 258 255 253 250 248 247 245 244 242 240 239 240 239 238 236 235 233 233 233 234 233 234 235 235 236 235 236 236 236 235 234 234 234 234 234 233 234 235 235 235 237 238 238 237 236 237 236 235 236 236 234 233 233 230 230 234 234 234 233 233 235 238 240 242 245 248 251
314 313 312 310 308 306 304 302 300 298 297 295 294 292 290 287 284 279 274 269 264 260 256 254 251 248 245 244 243 242 240 238 238 239 238 236 235 234 233 232 233 233 233 234 234 234 235 235 235 234 234 234 234 234 234 233 233 234 235 235 235 236 236 237 237 236 236 236 234 236 236 233 232 233 230 231 234 235 235 235 234 235 237 239 242 245 248 250
316 315 314 312 311 310 308 306 305 303 302 301 300 298 297 294 291 284 278 272 267 262 257 254 251 248 245 242 242 242 240 236 236 237 237 237 235 234 233 232 232 232 232 233 233 233 233 233 233 233 234 233 233 233 233 233 233 234 235 235 235 235 235 235 236 235 235 235 234 235 237 233 232 232 230 230 233 235 236 236 236 236 237 239 241 244 246 248
317 317 317 316 316 314 312 310 308 307 307 307 306 305 304 303 300 293 284 275 268 262 258 254 250 247 244 240 241 243 240 236 235 234 235 236 234 233 233 231 230 230 230 231 232 232 232 231 231 232 232 232 232 232 233 232 233 234 234 235 234 235 235 233 234 235 234 234 233 236 238 234 230 231 230 229 231 234 236 236 236 237 238 240 241 243 244 245
319 320 320 320 319 317 314 312 311 311 312 313 312 310 310 311 311 305 293 281 270 261 256 254 250 247 243 239 240 242 240 237 235 233 232 233 233 231 231 231 229 229 229 229 230 230 230 230 229 230 231 231 231 231 231 231 231 232 233 233 233 234 235 233 233 234 233 232 232 235 239 236 230 230 230 229 230 232 235 237 237 238 239 241 241 241 241 243
321 322 322 321 320 318 315 315 315 317 317 316 315 314 315 318 320 316 303 286 273 262 254 250 248 246 242 238 239 242 239 237 235 232 230 231 231 230 229 229 228 227 228 228 228 228 228 228 228 228 229 229 229 229 230 230 229 230 231 232 233 234 235 233 232 233 233 232 232 234 239 237 230 229 231 230 231 232 236 238 238 239 239 239 240 239 239 242
322 323 323 322 320 318 318 318 320 320 319 317 316 317 318 320 322 321 310 290 274 263 254 247 244 242 240 237 237 239 238 236 234 231 229 229 229 229 227 227 226 225 225 226 226 226 226 226 226 226 227 227 227 227 228 228 228 227 228 230 231 232 233 233 231 232 233 232 232 235 239 238 229 227 232 233 232 233 235 238 239 239 238 237 237 236 238 241
324 324 323 322 320 319 320 321 322 321 320 319 318 318 318 319 323 323 312 293 277 266 256 247 241 238 235 235 236 237 236 234 233 231 228 227 227 227 226 225 224 223 223 224 225 225 225 225 225 225 225 225 226 226 226 227 227 228 229 230 231 232 233 233 231 231 233 233 233 235 239 239 229 225 231 234 233 233 234 236 237 238 237 236 235 235 237 240
325 325 323 321 320 321 322 322 323 322 321 319 318 319 319 322 329 329 315 293 281 271 260 250 242 235 230 230 233 234 232 232 231 229 227 225 225 226 225 223 223 222 221 221 222 223 224 224 224 224 223 224 225 225 226 227 228 229 230 231 233 234 235 236 233 230 231 233 233 234 237 239 231 224 228 233 234 234 233 233 234 235 235 236 235 236 237 240
327 324 322 321 321 323 324 324 323 323 321 318 318 320 322 328 337 338 324 298 284 273 260 253 244 233 226 225 229 230 228 228 228 228 226 224 223 224 223 222 221 220 220 220 221 222 222 223 224 224 224 224 224 225 226 228 228 229 230 231 231 232 233 234 231 228 229 231 232 232 235 236 231 224 225 231 234 234 233 233 233 234 235 236 237 237 237 239
327 324 322 322 324 325 325 325 324 323 321 318 319 324 328 334 343 346 337 304 285 277 259 252 246 232 225 224 228 228 225 224 225 225 225 222 221 222 221 221 220 219 218 218 218 219 221 222 223 223 223 223 224 224 225 227 227 227 229 229 229 229 230 230 228 226 226 229 230 230 232 234 231 223 222 228 233 234 234 234 234 235 236 236 237 236 236 238
328 325 323 324 326 326 327 327 325 324 322 320 323 328 333 340 346 351 351 328 282 277 265 249 245 236 226 225 229 227 222 219 221 222 223 220 219 219 219 219 219 217 217 216 216 217 219 221 221 221 221 221 222 222 223 226 226 225 227 228 227 227 228 227 225 223 224 227 227 228 230 232 231 224 220 226 231 233 234 234 234 235 236 236 236 235 236 238
328 326 325 326 327 328 329 329 327 325 323 323 327 331 337 342 347 353 358 357 303 278 281 262 245 239 230 228 230 228 220 216 216 218 219 217 216 216 216 217 217 215 215 215 216 218 219 219 219 219 220 219 220 221 221 223 224 223 225 227 226 225 226 225 222 220 223 225 226 227 228 230 230 225 221 224 228 231 232 232 232 232 232 232 231 230 234 237
329 327 327 328 329 331 331 329 328 326 325 327 330 333 338 341 347 355 1 7 355 310 302 290 259 244 234 231 232 229 222 215 213 215 215 214 214 214 213 214 215 213 213 214 214 216 217 218 218 218 218 218 218 219 220 221 222 222 223 225 225 224 224 223 219 218 221 224 225 226 227 227 228 225 223 225 228 230 231 230 230 230 230 229 227 227 231 234
330 329 329 330 332 333 331 330 329 328 326 330 333 334 337 340 347 353 357 5 6 355 339 322 291 259 240 234 233 229 224 217 213 215 213 210 211 211 210 211 213 212 211 212 212 212 214 215 215 217 218 218 218 219 219 220 222 222 223 225 224 223 222 219 216 215 219 223 223 224 227 227 227 226 223 225 228 229 230 230 230 230 229 228 227 228 231 232
331 330 331 332 334 335 333 330 330 329 327 331 334 333 334 337 344 349 352 359 4 8 7 360 347 308 260 240 234 229 224 219 214 214 211 208 208 208 208 209 210 210 209 209 210 211 211 212 212 213 216 217 217 218 218 218 220 221 222 223 223 223 220 217 214 214 216 221 222 223 226 226 225 226 223 222 225 226 228 229 229 228 227 226 227 229 230 232
332 332 333 333 335 337 334 333 332 330 329 331 332 333 334 335 338 342 347 355 360 359 354 357 357 338 302 255 237 229 224 221 216 214 211 207 205 205 205 206 207 207 206 206 209 209 210 211 210 210 213 215 216 217 217 217 218 219 220 220 221 221 219 215 213 213 215 218 221 222 225 225 222 222 221 220 220 222 224 226 225 225 224 223 226 230 231 232
333 334 336 335 337 337 336 336 336 333 332 331 330 334 337 336 337 340 345 353 356 350 340 343 346 337 322 300 257 233 225 221 217 215 213 207 203 203 202 203 205 204 204 205 207 208 209 210 208 207 210 212 213 215 216 216 217 218 217 217 217 217 216 213 211 213 214 217 220 221 224 225 221 217 219 219 218 219 220 222 223 223 224 225 228 231 232 233
335 336 339 338 338 337 336 339 340 337 335 332 332 334 335 336 337 339 345 351 351 344 334 332 332 319 301 301 291 253 230 220 215 215 214 206 201 202 200 200 202 202 202 203 205 206 207 208 207 205 208 211 212 214 214 214 216 217 214 212 211 211 212 211 210 210 213 217 219 219 222 226 222 215 217 219 218 218 219 220 222 223 225 226 230 232 233 234
337 337 340 340 339 337 336 339 341 340 338 334 335 335 333 334 337 338 345 348 345 338 335 334 326 305 294 291 283 270 244 221 213 212 212 206 200 200 199 198 199 200 200 200 203 205 205 206 205 203 205 209 211 212 213 212 214 214 211 208 207 208 209 210 209 209 214 219 218 216 220 225 222 214 214 219 219 218 219 219 220 222 224 228 231 234 233 233
339 338 341 342 341 338 336 340 342 342 341 338 337 335 331 331 336 340 340 341 341 335 334 338 328 310 305 295 271 263 253 225 211 209 209 204 198 198 198 196 196 197 198 199 202 203 202 204 204 201 202 206 208 209 210 210 211 210 207 205 205 206 208 209 209 209 216 220 216 213 219 224 222 214 211 218 220 218 219 219 219 221 224 229 232 235 234 231
340 339 341 343 343 340 338 341 343 345 346 343 340 338 334 332 337 340 334 335 342 337 331 334 324 308 309 303 274 255 247 224 208 205 205 201 197 197 197 196 195 196 197 199 201 201 201 202 202 200 201 204 205 206 207 207 208 206 202 202 204 205 207 209 210 212 217 220 214 211 218 224 223 214 209 216 219 218 218 218 219 220 222 226 231 235 234 231
343 340 342 344 345 343 341 343 346 348 349 349 348 347 345 342 342 343 337 337 343 338 330 333 325 313 315 311 278 244 232 213 201 199 200 197 194 194 194 194 194 195 197 198 199 200 199 199 200 199 199 201 202 204 205 205 206 203 200 202 205 206 208 209 210 213 217 219 212 209 217 224 225 216 207 212 216 215 215 215 217 219 221 223 227 230 230 229
346 343 343 345 347 347 346 347 348 350 351 351 351 350 351 351 351 352 348 342 340 337 334 337 336 333 334 333 295 241 215 198 193 193 193 192 191 192 192 191 192 193 195 197 198 199 199 199 199 197 198 200 201 202 204 206 206 203 199 202 206 208 211 212 211 213 216 217 211 208 216 223 225 216 205 207 212 212 212 213 215 217 217 220 223 226 227 224
347 345 345 347 349 349 349 349 349 350 351 347 344 347 353 355 355 355 352 347 344 344 344 342 343 346 349 352 335 268 204 190 186 185 187 187 188 191 191 190 191 192 194 196 197 197 198 199 199 196 197 199 200 200 200 201 202 200 198 202 206 207 210 212 213 214 218 218 210 209 217 223 224 217 204 204 209 208 209 211 213 214 216 219 223 228 226 215
347 347 347 348 350 350 349 349 349 351 352 344 339 346 354 356 355 353 351 349 350 351 349 345 342 345 350 349 340 268 188 185 181 180 181 182 184 190 190 188 190 192 194 195 195 195 196 197 197 196 196 197 199 199 198 198 197 196 199 204 206 205 207 209 212 215 219 219 212 211 219 223 225 217 204 204 207 205 206 208 210 212 215 219 223 226 223 209
347 346 345 347 351 351 350 350 349 351 354 348 342 347 354 356 356 358 354 351 353 357 354 351 350 344 346 354 23 136 177 183 178 176 177 178 182 188 189 188 188 191 193 194 193 193 193 195 195 195 196 197 197 196 196 197 195 195 199 203 202 202 204 207 210 214 218 218 211 212 219 223 224 218 204 201 205 204 204 205 208 212 215 219 222 221 217 207
348 346 344 346 350 352 352 352 351 351 353 353 351 353 356 357 358 3 2 357 358 1 355 354 2 11 21 46 86 100 159 183 177 174 175 177 181 186 188 187 187 190 192 192 191 190 191 193 194 193 195 197 196 194 195 195 193 194 199 201 202 202 203 204 207 211 216 216 210 210 217 221 224 218 202 198 203 204 204 205 208 214 219 222 222 218 214 209
350 348 346 345 349 353 353 353 353 351 352 354 357 1 1 0 1 5 8 6 4 6 10 26 51 66 62 64 79 85 132 194 181 177 176 178 180 184 188 187 186 189 190 189 190 188 188 191 193 192 193 194 195 196 197 194 191 192 195 198 201 205 206 206 207 210 214 214 209 209 215 220 223 219 200 194 200 203 206 208 209 216 222 222 219 215 212 209
351 349 347 345 347 352 353 353 354 353 353 355 1 7 6 5 7 9 10 10 14 30 53 65 69 70 64 58 59 60 43 195 187 183 179 179 181 184 186 186 185 186 186 186 187 187 187 190 192 191 192 194 194 196 198 196 193 193 194 195 197 201 205 206 208 211 215 214 208 208 215 219 222 217 199 191 197 200 205 210 211 217 220 216 212 209 209 210
350 349 349 347 346 352 353 353 355 357 357 359 6 12 11 10 14 13 13 18 30 52 65 68 69 67 64 55 43 38 34 37 178 185 182 180 182 184 184 184 183 183 182 182 184 185 186 189 190 190 191 193 194 195 196 196 196 196 197 196 196 197 201 204 206 209 214 215 210 209 215 219 220 216 200 193 196 197 200 205 208 212 213 209 209 208 209 211
348 350 351 350 349 352 354 355 357 0 2 5 10 15 15 17 19 16 19 29 42 55 62 67 69 63 59 53 34 31 36 41 164 180 180 179 181 182 183 183 181 178 176 178 180 184 186 188 188 188 189 192 193 193 192 194 195 197 198 199 199 198 200 202 205 207 209 212 211 210 214 217 217 214 204 195 194 194 195 199 203 206 203 199 201 204 206 208
348 349 351 352 352 353 357 358 358 360 3 7 11 16 18 20 20 19 26 37 45 53 58 61 58 46 41 38 21 26 53 87 148 173 177 178 180 181 181 180 177 173 171 173 176 180 183 185 185 187 189 191 192 189 188 192 195 195 195 198 201 202 201 202 205 206 206 208 210 210 213 213 210 209 205 197 194 194 197 200 203 205 199 191 193 202 208 211
349 349 351 353 355 357 359 1 1 1 2 5 10 16 18 18 19 21 29 38 42 45 45 45 43 35 31 27 22 39 80 110 127 157 173 178 181 180 179 177 174 169 167 169 171 175 180 184 186 189 188 186 185 185 187 190 192 192 193 196 200 202 202 203 204 204 204 207 210 211 210 207 200 197 198 198 196 197 200 202 203 204 199 189 192 203 210 215
350 351 352 354 356 357 360 4 5 4 3 4 9 14 17 18 20 21 25 33 36 36 36 36 37 39 36 34 40 55 88 120 131 144 167 180 180 178 177 175 169 163 162 165 166 168 174 182 186 190 190 186 183 184 187 189 188 189 191 195 199 201 202 202 202 202 201 203 209 211 208 202 194 185 185 191 194 197 201 203 203 204 200 194 195 201 208 213
351 353 355 355 355 355 359 4 7 6 4 5 8 12 15 18 20 21 22 29 31 29 31 35 43 52 57 66 64 62 93 127 140 149 162 176 178 176 175 171 164 159 158 162 165 164 169 179 184 185 186 188 188 186 187 189 188 188 190 193 197 200 202 202 202 201 199 198 203 208 207 201 192 184 181 183 187 190 195 199 201 204 207 205 202 202 205 205
350 353 357 358 357 355 358 3 5 5 3 5 9 12 15 17 20 21 20 21 27 29 32 44 57 64 78 99 103 85 100 123 144 161 165 168 172 173 171 166 161 157 156 160 162 162 168 179 182 180 177 180 186 189 189 189 189 189 190 192 194 198 201 202 202 202 200 199 200 203 204 200 193 188 185 185 188 189 191 192 195 203 210 213 212 209 206 201
351 353 356 359 358 358 360 2 5 4 2 4 10 12 14 19 22 22 23 25 36 43 49 53 56 66 91 108 106 94 97 103 118 153 166 165 166 169 166 161 158 156 157 159 158 160 171 177 178 177 175 175 180 187 190 191 190 190 192 194 194 195 199 201 200 199 200 201 203 206 206 202 196 193 191 192 194 196 196 195 195 202 210 215 217 218 216 209
353 353 354 356 357 359 2 5 6 5 2 5 9 10 13 20 23 23 28 42 56 55 56 55 50 57 84 102 104 106 102 97 108 148 171 166 163 166 164 157 155 156 158 159 158 160 171 176 174 173 175 175 177 183 189 192 192 191 192 194 195 195 198 199 196 193 194 197 202 208 210 207 203 200 197 196 199 201 202 201 201 205 212 217 221 224 227 224
354 354 353 355 357 358 1 6 6 4 4 4 6 7 12 19 22 21 24 42 66 50 37 44 44 46 70 101 117 120 107 104 126 157 168 164 162 165 164 157 156 158 160 161 162 163 169 173 172 172 173 175 178 183 188 191 192 193 193 194 194 196 199 200 196 192 190 193 197 204 210 211 210 208 204 201 202 203 205 206 207 209 214 219 223 227 231 231
351 354 354 355 358 357 357 3 7 7 6 4 3 6 12 20 24 23 19 22 36 28 22 29 38 40 74 130 140 131 113 113 134 144 153 160 162 165 163 157 156 161 162 164 166 166 168 172 172 172 174 176 179 184 187 189 191 194 195 195 196 198 200 200 199 195 191 192 195 198 203 210 214 215 214 211 208 209 209 209 209 212 214 218 222 226 228 228
351 353 353 353 356 357 357 358 2 6 6 6 7 9 13 21 27 26 18 12 10 10 13 26 54 50 107 146 148 141 118 116 136 145 152 160 164 164 162 158 159 163 164 167 169 168 169 172 172 173 175 178 179 182 185 187 189 192 194 196 198 200 201 201 201 198 194 194 196 197 200 207 215 220 222 221 218 217 216 215 214 216 218 220 222 223 225 227